| time (UTC) | temp C | wind direction | speed KPH | gust KPH | rain 1hr cm | rain 24hr cm | rain mn cm | humidity % | barometer mb |
| 20260506002019 | 15 | 185 | 3.2 | 8.0 | 0.00 | 0.05 | 0.05 | 51 | 1011.3 |
| 20260506001020 | 16 | 173 | 3.2 | 11.3 | 0.00 | 0.05 | 0.05 | 50 | 1011.3 |
| 20260505235019 | 16 | 30 | 3.2 | 9.7 | 0.00 | 0.05 | 0.05 | 50 | 1011.3 |
| 20260505234020 | 15 | 115 | 4.8 | 12.9 | 0.00 | 0.05 | 0.05 | 51 | 1011.4 |
| 20260505233020 | 15 | 131 | 4.8 | 11.3 | 0.00 | 0.05 | 0.05 | 51 | 1011.3 |
| 20260505232021 | 15 | 114 | 6.4 | 14.5 | 0.00 | 0.05 | 0.05 | 52 | 1011.4 |
| 20260505231023 | 15 | 118 | 6.4 | 14.5 | 0.00 | 0.05 | 0.05 | 54 | 1011.7 |
| 20260505230018 | 15 | 110 | 6.4 | 16.1 | 0.00 | 0.05 | 0.05 | 54 | 1011.6 |
| 20260505225018 | 15 | 160 | 6.4 | 11.3 | 0.00 | 0.05 | 0.05 | 57 | 1011.6 |
| 20260505224018 | 15 | 147 | 3.2 | 11.3 | 0.00 | 0.05 | 0.05 | 55 | 1011.7 |
| 20260505223021 | 14 | 200 | 6.4 | 14.5 | 0.03 | 0.05 | 0.05 | 56 | 1012.0 |
| 20260505222043 | 13 | 188 | 8.0 | 16.1 | 0.03 | 0.05 | 0.05 | 58 | 1012.2 |
| 20260505221018 | 14 | 193 | 9.7 | 20.9 | 0.03 | 0.05 | 0.05 | 61 | 1012.0 |
| 20260505220018 | 15 | 239 | 9.7 | 20.9 | 0.03 | 0.05 | 0.05 | 60 | 1012.4 |
| 20260505215039 | 15 | 250 | 4.8 | 12.9 | 0.03 | 0.05 | 0.05 | 57 | 1012.6 |
| 20260505214019 | 15 | 293 | 3.2 | 11.3 | 0.03 | 0.05 | 0.05 | 53 | 1012.5 |
| 20260505213019 | 16 | 318 | 6.4 | 12.9 | 0.00 | 0.03 | 0.03 | 48 | 1012.5 |
| 20260505212019 | 16 | 312 | 4.8 | 12.9 | 0.00 | 0.03 | 0.03 | 46 | 1012.5 |
| 20260505211019 | 16 | 275 | 3.2 | 9.7 | 0.00 | 0.03 | 0.03 | 46 | 1012.7 |
| 20260505210020 | 16 | 290 | 4.8 | 12.9 | 0.00 | 0.03 | 0.03 | 47 | 1012.7 |
| 20260505205040 | 16 | 296 | 4.8 | 11.3 | 0.00 | 0.03 | 0.03 | 47 | 1012.7 |
| 20260505204020 | 16 | 136 | 1.6 | 6.4 | 0.00 | 0.03 | 0.03 | 48 | 1012.9 |
| 20260505203020 | 16 | 320 | 4.8 | 11.3 | 0.00 | 0.03 | 0.03 | 47 | 1013.1 |
| 20260505202020 | 16 | 321 | 6.4 | 12.9 | 0.00 | 0.03 | 0.03 | 49 | 1013.1 |
| 20260505201021 | 15 | 352 | 6.4 | 14.5 | 0.00 | 0.03 | 0.03 | 51 | 1013.1 |
| 20260505200018 | 14 | 288 | 3.2 | 11.3 | 0.00 | 0.03 | 0.03 | 54 | 1013.2 |
| 20260505195038 | 15 | 291 | 4.8 | 12.9 | 0.00 | 0.03 | 0.03 | 53 | 1013.3 |
| 20260505194019 | 15 | 290 | 4.8 | 12.9 | 0.00 | 0.03 | 0.03 | 54 | 1013.4 |
| 20260505193022 | 15 | 287 | 3.2 | 9.7 | 0.00 | 0.03 | 0.03 | 53 | 1013.4 |
| 20260505192019 | 14 | 254 | 3.2 | 11.3 | 0.00 | 0.03 | 0.03 | 59 | 1013.5 |
| 20260505191019 | 14 | 228 | 8.0 | 16.1 | 0.00 | 0.03 | 0.03 | 57 | 1013.5 |
| 20260505190019 | 13 | 211 | 8.0 | 16.1 | 0.00 | 0.03 | 0.03 | 63 | 1013.4 |
| 20260505185019 | 15 | 188 | 11.3 | 20.9 | 0.00 | 0.03 | 0.03 | 65 | 1013.4 |
| 20260505184020 | 15 | 203 | 11.3 | 24.1 | 0.00 | 0.03 | 0.03 | 51 | 1013.5 |
| 20260505183020 | 16 | 224 | 8.0 | 19.3 | 0.00 | 0.03 | 0.03 | 47 | 1013.4 |
| 20260505182019 | 16 | 254 | 8.0 | 20.9 | 0.00 | 0.03 | 0.03 | 46 | 1013.5 |
| 20260505181021 | 17 | 266 | 4.8 | 14.5 | 0.00 | 0.03 | 0.03 | 42 | 1013.5 |
| 20260505180020 | 17 | 247 | 4.8 | 14.5 | 0.00 | 0.03 | 0.03 | 41 | 1013.5 |
| 20260505175021 | 17 | 298 | 4.8 | 11.3 | 0.00 | 0.03 | 0.03 | 42 | 1013.5 |
| 20260505174019 | 16 | 305 | 3.2 | 9.7 | 0.00 | 0.03 | 0.03 | 41 | 1013.6 |
| 20260505173021 | 16 | 319 | 4.8 | 12.9 | 0.00 | 0.03 | 0.03 | 43 | 1013.5 |
| 20260505172022 | 16 | 297 | 3.2 | 11.3 | 0.00 | 0.03 | 0.03 | 42 | 1013.7 |
| 20260505171021 | 14 | 35 | 3.2 | 11.3 | 0.00 | 0.03 | 0.03 | 45 | 1013.7 |
| 20260505170021 | 14 | 330 | 6.4 | 12.9 | 0.00 | 0.03 | 0.03 | 46 | 1013.9 |
| 20260505165018 | 13 | 322 | 4.8 | 9.7 | 0.00 | 0.03 | 0.03 | 47 | 1013.7 |
| 20260505164039 | 13 | 44 | 1.6 | 6.4 | 0.00 | 0.03 | 0.03 | 48 | 1013.7 |
| 20260505163021 | 13 | 5 | 1.6 | 8.0 | 0.00 | 0.03 | 0.03 | 50 | 1013.8 |
| 20260505162018 | 12 | 61 | 3.2 | 9.7 | 0.00 | 0.03 | 0.03 | 52 | 1013.7 |
| 20260505161020 | 12 | 7 | 4.8 | 11.3 | 0.00 | 0.03 | 0.03 | 55 | 1014.0 |
| 20260505153021 | 12 | 6 | 8.0 | 14.5 | 0.03 | 0.03 | 0.03 | 59 | 1014.3 |
| 20260505152040 | 12 | 17 | 9.7 | 17.7 | 0.03 | 0.03 | 0.03 | 59 | 1014.3 |
| 20260505151020 | 12 | 351 | 8.0 | 14.5 | 0.03 | 0.03 | 0.03 | 60 | 1014.2 |
| 20260505125040 | 14 | 313 | 1.6 | 4.8 | 0.00 | 0.00 | 0.00 | 43 | 1013.2 |
| 20260505124023 | 14 | 305 | 1.6 | 3.2 | 0.00 | 0.00 | 0.00 | 42 | 1013.4 |
| 20260505123019 | 14 | 341 | 0.0 | 3.2 | 0.00 | 0.00 | 0.00 | 42 | 1013.4 |
| 20260505122100 | 14 | 231 | 1.6 | 9.7 | 0.00 | 0.00 | 0.00 | 41 | 1013.4 |
| 20260505121020 | 14 | 249 | 1.6 | 6.4 | 0.00 | 0.00 | 0.00 | 40 | 1013.4 |
| 20260505120020 | 14 | 289 | 1.6 | 6.4 | 0.00 | 0.00 | 0.00 | 39 | 1013.3 |
| 20260505115018 | 14 | 297 | 1.6 | 6.4 | 0.00 | 0.00 | 0.00 | 39 | 1013.2 |
| 20260505114021 | 14 | 297 | 3.2 | 8.0 | 0.00 | 0.00 | 0.00 | 38 | 1013.0 |
| 20260505113021 | 14 | 332 | 1.6 | 4.8 | 0.00 | 0.00 | 0.00 | 38 | 1013.0 |
| 20260505112021 | 14 | 328 | 0.0 | 3.2 | 0.00 | 0.00 | 0.00 | 38 | 1012.9 |
| 20260505111021 | 14 | 270 | 0.0 | 3.2 | 0.00 | 0.00 | 0.00 | 37 | 1013.1 |
| 20260505102018 | 15 | 230 | 0.0 | 1.6 | 0.00 | 0.00 | 0.00 | 37 | 1013.1 |
| 20260505101039 | 15 | 103 | 0.0 | 0.0 | 0.00 | 0.00 | 0.00 | 36 | 1013.0 |
| 20260505100018 | 15 | 204 | 0.0 | 1.6 | 0.00 | 0.00 | 0.00 | 35 | 1012.9 |
| 20260505095019 | 15 | 265 | 0.0 | 1.6 | 0.00 | 0.00 | 0.00 | 34 | 1012.9 |
| 20260505094019 | 15 | 102 | 1.6 | 4.8 | 0.00 | 0.00 | 0.00 | 34 | 1012.9 |
| 20260505093020 | 16 | 39 | 3.2 | 6.4 | 0.00 | 0.00 | 0.00 | 32 | 1012.9 |
| 20260505092020 | 16 | 273 | 3.2 | 12.9 | 0.00 | 0.00 | 0.00 | 32 | 1013.1 |
| 20260505091019 | 16 | 309 | 1.6 | 6.4 | 0.00 | 0.00 | 0.00 | 32 | 1013.0 |
| 20260505090020 | 16 | 307 | 4.8 | 9.7 | 0.00 | 0.00 | 0.00 | 33 | 1013.2 |
| 20260505085017 | 16 | 333 | 4.8 | 9.7 | 0.00 | 0.00 | 0.00 | 33 | 1013.4 |
| 20260505084020 | 16 | 39 | 1.6 | 6.4 | 0.00 | 0.00 | 0.00 | 34 | 1013.5 |
| 20260505083020 | 16 | 304 | 1.6 | 4.8 | 0.00 | 0.00 | 0.00 | 33 | 1013.6 |
| 20260505082021 | 16 | 302 | 3.2 | 8.0 | 0.00 | 0.00 | 0.00 | 33 | 1013.6 |
| 20260505081022 | 16 | 306 | 3.2 | 8.0 | 0.00 | 0.00 | 0.00 | 33 | 1013.5 |
| 20260505080019 | 16 | 251 | 1.6 | 11.3 | 0.00 | 0.00 | 0.00 | 33 | 1013.7 |
| 20260505075038 | 16 | 275 | 3.2 | 11.3 | 0.00 | 0.00 | 0.00 | 33 | 1013.8 |
| 20260505074022 | 17 | 316 | 3.2 | 9.7 | 0.00 | 0.00 | 0.00 | 32 | 1013.8 |
| 20260505073043 | 17 | 292 | 4.8 | 16.1 | 0.00 | 0.00 | 0.00 | 32 | 1013.7 |
| 20260505072019 | 17 | 298 | 4.8 | 12.9 | 0.00 | 0.00 | 0.00 | 32 | 1013.5 |
| 20260505071019 | 17 | 284 | 4.8 | 16.1 | 0.00 | 0.00 | 0.00 | 31 | 1013.4 |
| 20260505070020 | 17 | 280 | 8.0 | 17.7 | 0.00 | 0.00 | 0.00 | 30 | 1013.1 |
| 20260505065019 | 17 | 275 | 6.4 | 16.1 | 0.00 | 0.00 | 0.00 | 30 | 1013.1 |
| 20260505064020 | 17 | 285 | 6.4 | 11.3 | 0.00 | 0.00 | 0.00 | 29 | 1013.1 |
| 20260505063020 | 18 | 221 | 3.2 | 12.9 | 0.00 | 0.00 | 0.00 | 28 | 1013.0 |
| 20260505062022 | 18 | 276 | 6.4 | 12.9 | 0.00 | 0.00 | 0.00 | 28 | 1013.2 |
| 20260505061020 | 18 | 265 | 4.8 | 14.5 | 0.00 | 0.00 | 0.00 | 27 | 1013.2 |
| 20260505060020 | 18 | 266 | 6.4 | 12.9 | 0.00 | 0.00 | 0.00 | 27 | 1013.1 |
| 20260505055018 | 18 | 278 | 3.2 | 9.7 | 0.00 | 0.00 | 0.00 | 26 | 1013.1 |
| 20260505054041 | 18 | 295 | 4.8 | 11.3 | 0.00 | 0.00 | 0.00 | 26 | 1013.1 |
| 20260505053040 | 18 | 276 | 4.8 | 17.7 | 0.00 | 0.00 | 0.00 | 26 | 1012.9 |
| 20260505052018 | 18 | 268 | 3.2 | 11.3 | 0.00 | 0.00 | 0.00 | 26 | 1012.9 |
| 20260505051039 | 19 | 244 | 4.8 | 11.3 | 0.00 | 0.00 | 0.00 | 26 | 1012.8 |
| 20260505041019 | 20 | 281 | 3.2 | 9.7 | 0.00 | 0.00 | 0.00 | 25 | 1012.7 |
| 20260505040019 | 20 | 305 | 1.6 | 8.0 | 0.00 | 0.00 | 0.00 | 25 | 1012.7 |
| 20260505035040 | 20 | 286 | 3.2 | 6.4 | 0.00 | 0.00 | 0.00 | 25 | 1012.8 |
| 20260505034019 | 20 | 235 | 1.6 | 4.8 | 0.00 | 0.00 | 0.00 | 24 | 1012.5 |
| 20260505033019 | 20 | 296 | 3.2 | 9.7 | 0.00 | 0.00 | 0.00 | 24 | 1012.4 |
| 20260505032040 | 20 | 306 | 3.2 | 11.3 | 0.00 | 0.00 | 0.00 | 24 | 1012.3 |
| 20260505031020 | 21 | 308 | 8.0 | 17.7 | 0.00 | 0.00 | 0.00 | 23 | 1012.1 |
| 20260505025020 | 21 | 306 | 9.7 | 17.7 | 0.00 | 0.00 | 0.00 | 22 | 1011.9 |
| 20260505024021 | 21 | 296 | 6.4 | 20.9 | 0.00 | 0.00 | 0.00 | 22 | 1011.9 |
| 20260505023020 | 21 | 291 | 6.4 | 16.1 | 0.00 | 0.00 | 0.00 | 21 | 1011.8 |
| 20260505022018 | 21 | 292 | 8.0 | 20.9 | 0.00 | 0.00 | 0.00 | 21 | 1011.8 |
| 20260505021018 | 22 | 285 | 6.4 | 16.1 | 0.00 | 0.00 | 0.00 | 22 | 1011.6 |
| 20260505020021 | 22 | 287 | 4.8 | 17.7 | 0.00 | 0.00 | 0.00 | 22 | 1011.5 |
| 20260505015021 | 22 | 281 | 8.0 | 19.3 | 0.00 | 0.00 | 0.00 | 21 | 1011.4 |
| 20260505014018 | 22 | 314 | 8.0 | 12.9 | 0.00 | 0.00 | 0.00 | 21 | 1011.3 |
| 20260505013019 | 22 | 288 | 9.7 | 17.7 | 0.00 | 0.00 | 0.00 | 21 | 1011.1 |
| 20260505012019 | 22 | 286 | 8.0 | 22.5 | 0.00 | 0.00 | 0.00 | 21 | 1011.0 |
| 20260505011022 | 22 | 277 | 8.0 | 19.3 | 0.00 | 0.00 | 0.00 | 20 | 1010.9 |
| 20260505010019 | 22 | 290 | 8.0 | 19.3 | 0.00 | 0.00 | 0.00 | 20 | 1011.0 |
| 20260505005020 | 22 | 292 | 6.4 | 16.1 | 0.00 | 0.00 | 0.00 | 19 | 1011.0 |
| 20260505004019 | 22 | 285 | 8.0 | 19.3 | 0.00 | 0.00 | 0.00 | 19 | 1011.1 |
| 20260505003100 | 23 | 294 | 8.0 | 20.9 | 0.00 | 0.00 | 0.00 | 19 | 1011.1 |